Location: Domachevo
(51.7500°N, 23.6000°E)
Time: 23:25:59
(UTC+02:00)

GENESIS II - Visible Passes

Search period start: 21 February 2018 00:00
Search period end: 03 March 2018 00:00
Orbit: 512 x 520 km, 64.5° (Epoch: 20 February)

Date Brightness Start Highest point End Pass type
(mag) Time Alt. Az. Time Alt. Az. Time Alt. Az.
21 Feb 7.6 06:30:19 10° SE 06:32:08 13° ESE 06:33:58 10° E visible
22 Feb 7.5 06:14:42 10° SE 06:16:38 13° ESE 06:18:32 10° E visible
23 Feb 7.4 05:59:06 10° SE 06:01:06 14° ESE 06:03:07 10° E visible
24 Feb 7.3 05:43:30 10° SE 05:45:35 14° ESE 05:47:41 10° E visible
25 Feb 7.2 05:27:55 10° SSE 05:30:04 14° ESE 05:32:14 10° E visible
26 Feb 7.1 05:12:19 10° SSE 05:14:33 15° ESE 05:16:48 10° E visible
27 Feb 7.0 04:56:44 10° SSE 04:59:02 15° ESE 05:01:21 10° ENE visible
27 Feb 4.2 06:32:17 10° SW 06:36:12 82° NW 06:40:10 10° NE visible
28 Feb 7.0 04:41:10 10° SSE 04:43:31 16° ESE 04:45:53 10° ENE visible
28 Feb 4.2 06:16:46 10° SW 06:20:42 80° NW 06:24:40 10° NE visible
01 Mar 6.8 04:26:15 12° SE 04:28:00 16° ESE 04:30:26 10° ENE visible
01 Mar 4.1 06:01:18 10° SW 06:05:12 78° NW 06:09:10 10° NE visible
02 Mar 6.7 04:11:45 16° SE 04:12:28 16° ESE 04:14:59 10° ENE visible
02 Mar 4.1 05:46:46 17° SW 05:49:42 77° NW 05:53:40 10° NE visible
